Location: Blankensee
(53.5126°N, 14.3055°E)
Time: 06:22:27
(UTC+00:00)

Cosmos 1626 Rocket - Pass Details

Date: 08 August 2020
Orbit: 603 x 631 km, 82.5° (Epoch: 24 September)

Event Time Altitude Azimuth Distance (km) Brightness Sun altitude
Rises 01:45:24 0° 349° (N) 2,883 7.6 -12.7°
Reaches altitude 10° 01:47:39 10° 352° (N) 1,970 6.8 -12.5°
Maximum altitude 01:52:00 73° 77° (ENE) 638 3.7 -12.1°
Drops below altitude 10° 01:56:18 10° 163° (SSE) 1,948 5.8 -11.7°
Sets 01:58:30 0° 165° (SSE) 2,846 6.6 -11.5°
Enters shadow 01:58:31 - 165° (SSE) 2,848 6.6 -11.5°
